Home > Weather > Funchal > Past weeks

Flag for Portugal Past Weather in Funchal, Madeira, Portugal — Yesterday and Last 2 Weeks

Now
73 °F

Passing clouds.


Feels Like: 75 °F
Forecast: 74 / 84 °F
Wind: 8 mph from Northeast

Location: Aeroporto Da Madeira

Current Time: Aug 28, 2016 at 11:41:20 PM

Latest Report: Aug 28, 2016 at 11:00 PM


Visibility: N/A

Pressure: 30.21 "Hg

Humidity: 74%

Dew Point: 64 °F

Location of FunchalLocation

Past Weather in Funchal — Graph

°F

Funchal Temperature Yesterday

Maximum temperature yesterday: 79 °F (at 2:00 PM)
Minimum temperature yesterday: 70 °F (at 7:00 AM)
Average temperature yesterday: 73 °F

High & Low Weather Summary for the Past Weeks

 TemperatureHumidityPressure
High86 °F (Aug 14, 12:30 PM)94% (Aug 20, 6:00 AM)30.21 "Hg (Aug 20, 6:00 AM)
Low68 °F (Aug 17, 7:00 AM)28% (Aug 14, 6:30 AM)29.95 "Hg (Aug 25, 5:00 AM)
Average74 °F67%30.09 "Hg
* Reported Aug 13 10:00 PM — Aug 28 10:30 PM, Funchal, Weather by CustomWeather, © 2016

Note: Actual official high and low records may vary slightly from our data, if they occured in-between our weather recording intervals... More about our weather records

Advertising

Funchal Weather History for the Previous 24 Hours

Scroll right to see more
 ConditionsComfort  
Time TempWeatherWind HumidityBarometerVisibility
10:30 PM
Sun, Aug 28
73 °FPassing clouds.9 mph74%30.21 "HgN/A
10:00 PM73 °FPassing clouds.9 mph78%30.21 "HgN/A
9:30 PM73 °FPassing clouds.12 mph74%30.18 "HgN/A
9:00 PM73 °FScattered clouds.13 mph74%30.15 "HgN/A
8:30 PM73 °FScattered clouds.14 mph74%30.15 "HgN/A
8:00 PM75 °FScattered clouds.20 mph74%30.12 "HgN/A
7:30 PM77 °FScattered clouds.18 mph69%30.12 "HgN/A
7:00 PM75 °FPartly sunny.18 mph74%30.12 "HgN/A
6:30 PM75 °FPartly sunny.20 mph74%30.15 "HgN/A
6:00 PM77 °FPartly sunny.21 mph69%30.15 "HgN/A
5:30 PM75 °FBroken clouds.21 mph74%30.15 "HgN/A
5:00 PM73 °FSprinkles. Broken clouds.22 mph78%30.15 "HgN/A
4:30 PM75 °FBroken clouds.18 mph69%30.18 "HgN/A
4:00 PM73 °FBroken clouds.15 mph78%30.18 "HgN/A
3:30 PM73 °FBroken clouds.16 mph74%30.18 "HgN/A
3:00 PM75 °FBroken clouds.12 mph69%30.18 "HgN/A
2:30 PM75 °FBroken clouds.12 mph69%30.21 "HgN/A
2:00 PM75 °FBroken clouds.6 mph69%30.18 "HgN/A
1:30 PM77 °FBroken clouds.8 mph65%30.15 "HgN/A
1:00 PM77 °FBroken clouds.15 mph61%30.15 "HgN/A
12:30 PM77 °FScattered clouds.21 mph65%30.15 "HgN/A
12:00 PM75 °FScattered clouds.18 mph69%30.18 "HgN/A
11:30 AM75 °FScattered clouds.15 mph69%30.18 "HgN/A
11:00 AM75 °FScattered clouds.13 mph69%30.18 "HgN/A
10:30 AM73 °FScattered clouds.8 mph74%30.18 "HgN/A
10:00 AM73 °FScattered clouds.9 mph69%30.18 "HgN/A
9:30 AM73 °FPassing clouds.12 mph69%30.15 "HgN/A
9:00 AM72 °FPassing clouds.20 mph73%30.12 "HgN/A
8:30 AM72 °FPassing clouds.17 mph73%30.15 "HgN/A
8:00 AM70 °FPassing clouds.16 mph78%30.15 "HgN/A
7:30 AM72 °FPassing clouds.12 mph73%30.15 "HgN/A
7:00 AM70 °FPassing clouds.9 mph78%30.15 "HgN/A
6:30 AM72 °FPassing clouds.6 mph69%30.15 "HgN/A
6:00 AM72 °FPassing clouds.12 mph69%30.12 "HgN/A
5:30 AM72 °FPassing clouds.12 mph69%30.12 "HgN/A
5:00 AM72 °FPassing clouds.13 mph69%30.09 "HgN/A
4:30 AM72 °FPassing clouds.13 mph69%30.09 "HgN/A
4:00 AM72 °FPassing clouds.16 mph69%30.09 "HgN/A
3:30 AM72 °FPassing clouds.15 mph69%30.09 "HgN/A
3:00 AM72 °FPassing clouds.13 mph69%30.12 "HgN/A
2:30 AM72 °FPassing clouds.12 mph69%30.12 "HgN/A
2:00 AM72 °FPassing clouds.15 mph69%30.12 "HgN/A
1:30 AM72 °FPassing clouds.14 mph69%30.12 "HgN/A
1:00 AM72 °FPassing clouds.13 mph69%30.12 "HgN/A
12:30 AM72 °FPassing clouds.13 mph69%30.15 "HgN/A
12:00 AM72 °FPassing clouds.12 mph69%30.15 "HgN/A
11:30 PM
Sat, Aug 27
72 °FPassing clouds.15 mph69%30.15 "HgN/A
11:00 PM72 °FPassing clouds.15 mph69%30.15 "HgN/A
Weather by CustomWeather, © 2016

See weather overviewHow to use our weather pages